Regional Weather Roundup
Issued by NWS Charleston, WV

Home | Current Version | Previous Version | Graphics & Text | Print | Product List | Glossary On
Versions: 1 2 3 4 5 6 7 8 9 10 11 12 13 14 15 16 17 18 19 20 21 22 23 24 25 26 27 28 29 30 31 32 33 34 35 36 37 38 39 40 41 42 43 44 45 46 47 48 49 50
000
ASUS41 KRLX 190310
RWRRLX
West Virginia Regional Weather Roundup
National Weather Service Charleston WV
1000 PM EST SUN FEB 18 2018

Note: "fair" indicates few or no clouds below 12,000 feet with no
significant weather and/or obstructions to visibility.

WVZ003-190400-
Northern Panhandle of West Virginia

CITY           SKY/WX    TMP DP  RH WIND       PRES   REMARKS
WHEELING         N/A     34  26  72 E12       30.23F
$$

WVZ009-190400-
Northwest West Virginia

CITY           SKY/WX    TMP DP  RH WIND       PRES   REMARKS
PARKERSBURG      N/A     35  29  78 E3        30.25F
$$

WVZ006-190400-
Western West Virginia

CITY           SKY/WX    TMP DP  RH WIND       PRES   REMARKS
HUNTINGTON       N/A     40  29  64 E3        30.19F
$$

WVZ015-190400-
West Central West Virginia

CITY           SKY/WX    TMP DP  RH WIND       PRES   REMARKS
CHARLESTON       N/A     37  33  85 CALM      30.20F
$$

WVZ022-031-190400-
North Central West Virginia

CITY           SKY/WX    TMP DP  RH WIND       PRES   REMARKS
CLARKSBURG       N/A     34  28  79 CALM      30.25F
MORGANTOWN       N/A     39  26  59 SE7       30.27F
$$

WVZ025-035-042-045-190400-
Southern West Virginia

CITY           SKY/WX    TMP DP  RH WIND       PRES   REMARKS
BECKLEY          N/A     44  26  49 SE16G29   30.26S
LOGAN            N/A     50  30  46 VRB7G20   30.20S
BLUEFIELD        N/A     44  26  49 SE10G24   30.29S
LEWISBURG        N/A     41  27  57 CALM      30.35S
$$

WVZ047-190400-
Northern Mountains of West Virginia

CITY           SKY/WX    TMP DP  RH WIND       PRES   REMARKS
ELKINS           N/A     41  27  57 SE7       30.27S
$$

WVZ052-190400-
Eastern Panhandle of West Virginia

CITY           SKY/WX    TMP DP  RH WIND       PRES   REMARKS
MARTINSBURG      N/A     35  27  72 CALM      30.42R
PETERSBURG       N/A     31  29  90 CALM      30.38R
$$



USA.gov is the U.S. government's official web portal to all federal, state and local government web resources and services.